Tracking 20712 objects as of 27-May-2020
HD Live streaming from Space Station
objects crossing your sky now

GEOS 2

Track GEOS 2 now!
GEOS 2 is classified as:


NORAD ID: 10981
Int'l Code: 1978-071A
Perigee: 36,029.8 km
Apogee: 36,063.4 km
Inclination: 10.8 °
Period: 1,449.0 minutes
Semi major axis: 42417 km
RCS: 2.0304 m2 (large)
Launch date: July 14, 1978
Source: European Space Agency (ESA)
Launch site: AIR FORCE EASTERN TEST RANGE (AFETR)
aabbcc
Your satellite tracking list
Your tracking list is empty




NASA's NSSDC Master Catalog

Two Line Element Set (TLE):
1 10981U 78071A   20147.89793810 -.00000190  00000-0  00000+0 0  9991
2 10981  10.8254 310.5165 0003958   2.8318   2.3196  0.99376454151981
Source of the keplerian elements: AFSPC